MAC314 KSLC-KONT

Flight info

Callsign MAC314
Flight time 1h 29m
Altitude 29000
Route FFU9 MLF BCE/N0473F280 J60 BLD NATEE JCKIE2
Aircraft B722/M-SBDFIRWY/SB1

Departure

Time 2026-05-04 09:29
Airport Salt Lake City International Airport (KSLC)

Arrival

Time 2026-05-04 10:58
Airport Ontario International Airport (KONT)
Time Latitude Longitude Altitude Speed Heading
2026-05-04 09:01 40.77816 -111.97815 4237 ft 0 kts 264°
2026-05-04 09:11 40.77815 -111.97794 4240 ft 2 kts 295°
2026-05-04 09:11 40.77803 -111.97777 4241 ft 2 kts 333°
2026-05-04 09:11 40.77787 -111.97773 4240 ft 0 kts
2026-05-04 09:17 40.77834 -111.97740 4241 ft 6 kts 38°
2026-05-04 09:18 40.77875 -111.97701 4239 ft 8 kts 28°
2026-05-04 09:18 40.77939 -111.97680 4237 ft 11 kts
2026-05-04 09:18 40.78031 -111.97686 4233 ft 15 kts 354°
2026-05-04 09:18 40.78138 -111.97700 4225 ft 15 kts 354°
2026-05-04 09:19 40.78240 -111.97715 4229 ft 15 kts 351°
2026-05-04 09:19 40.78344 -111.97729 4229 ft 16 kts 355°
2026-05-04 09:19 40.78454 -111.97742 4230 ft 15 kts 354°
2026-05-04 09:19 40.78551 -111.97755 4234 ft 13 kts 355°
2026-05-04 09:20 40.78633 -111.97764 4236 ft 11 kts 355°
2026-05-04 09:20 40.78712 -111.97773 4236 ft 12 kts 354°
2026-05-04 09:20 40.78795 -111.97783 4236 ft 12 kts 356°
2026-05-04 09:20 40.78880 -111.97792 4237 ft 12 kts 355°
2026-05-04 09:21 40.78966 -111.97802 4237 ft 13 kts 355°
2026-05-04 09:21 40.79059 -111.97812 4236 ft 14 kts 355°
2026-05-04 09:21 40.79164 -111.97823 4235 ft 16 kts 356°
2026-05-04 09:21 40.79282 -111.97837 4232 ft 18 kts 354°
2026-05-04 09:22 40.79411 -111.97853 4230 ft 20 kts 355°
2026-05-04 09:22 40.79547 -111.97870 4231 ft 19 kts 355°
2026-05-04 09:22 40.79683 -111.97884 4230 ft 20 kts 355°
2026-05-04 09:22 40.79820 -111.97901 4232 ft 19 kts 355°
2026-05-04 09:23 40.79942 -111.97916 4237 ft 16 kts 355°
2026-05-04 09:23 40.80055 -111.97928 4237 ft 17 kts 355°
2026-05-04 09:23 40.80171 -111.97941 4238 ft 16 kts 355°
2026-05-04 09:23 40.80279 -111.97956 4240 ft 15 kts 354°
2026-05-04 09:25 40.80636 -111.97681 4234 ft 13 kts 174°
2026-05-04 09:25 40.80629 -111.97680 4234 ft 0 kts 174°
2026-05-04 09:27 40.80628 -111.97680 4234 ft 2 kts 175°
2026-05-04 09:27 40.80476 -111.97660 4239 ft 46 kts 175°
2026-05-04 09:28 40.79986 -111.97603 4236 ft 95 kts 174°
2026-05-04 09:28 40.79181 -111.97512 4235 ft 136 kts 175°
2026-05-04 09:28 40.78130 -111.97372 4234 ft 170 kts 169°
2026-05-04 09:28 40.76907 -111.97230 4570 ft 179 kts 176°
2026-05-04 09:29 40.75675 -111.97115 5175 ft 174 kts 174°
2026-05-04 09:29 40.74477 -111.97055 5792 ft 171 kts 176°
2026-05-04 09:29 40.73251 -111.97011 6168 ft 183 kts 176°
2026-05-04 09:29 40.71926 -111.96954 6459 ft 198 kts 174°
2026-05-04 09:30 40.70519 -111.96854 6728 ft 208 kts 175°
2026-05-04 09:30 40.69028 -111.96706 6904 ft 223 kts 173°
2026-05-04 09:30 40.67412 -111.96497 7189 ft 241 kts 173°
2026-05-04 09:30 40.65746 -111.96248 7799 ft 246 kts 172°
2026-05-04 09:31 40.64018 -111.95972 8447 ft 255 kts 173°
2026-05-04 09:31 40.62205 -111.95751 9033 ft 266 kts 175°
2026-05-04 09:31 40.60349 -111.95561 9741 ft 269 kts 175°
2026-05-04 09:31 40.58465 -111.95395 10328 ft 275 kts 178°
2026-05-04 09:32 40.56518 -111.95389 10689 ft 290 kts 180°
2026-05-04 09:32 40.54430 -111.95428 10960 ft 308 kts 180°
2026-05-04 09:34 40.37106 -111.93999 13485 ft 402 kts 176°
2026-05-04 09:34 40.34279 -111.93779 13846 ft 412 kts 176°
2026-05-04 09:34 40.31387 -111.93558 14258 ft 420 kts 176°
2026-05-04 09:34 40.28488 -111.93333 14669 ft 426 kts 176°
2026-05-04 09:35 40.25506 -111.93271 15137 ft 430 kts 182°
2026-05-04 09:35 40.22525 -111.93578 15666 ft 429 kts 185°
2026-05-04 09:35 40.19565 -111.94004 16257 ft 427 kts 186°
2026-05-04 09:35 40.16623 -111.94436 16859 ft 425 kts 186°
2026-05-04 09:37 39.96468 -111.97489 20870 ft 410 kts 186°
2026-05-04 09:37 39.93649 -111.97905 21476 ft 407 kts 186°
2026-05-04 09:38 39.90833 -111.98327 22017 ft 408 kts 186°
2026-05-04 09:38 39.87997 -111.98749 22406 ft 412 kts 186°
2026-05-04 09:38 39.85141 -111.99177 22940 ft 413 kts 186°
2026-05-04 09:38 39.82315 -111.99601 23376 ft 416 kts 186°
2026-05-04 09:39 39.79427 -112.00027 23779 ft 418 kts 186°
2026-05-04 09:39 39.76529 -112.00442 24202 ft 420 kts 186°
2026-05-04 09:39 39.73614 -112.00764 24610 ft 421 kts 184°
2026-05-04 09:39 39.70683 -112.01021 24986 ft 423 kts 184°
2026-05-04 09:40 39.67738 -112.01270 25355 ft 425 kts 184°
2026-05-04 09:40 39.64783 -112.01507 25713 ft 426 kts 184°
2026-05-04 09:40 39.61814 -112.01733 26056 ft 428 kts 185°
2026-05-04 09:40 39.58831 -112.01900 26393 ft 430 kts 184°
2026-05-04 09:41 39.55884 -112.02022 26606 ft 431 kts 184°
2026-05-04 09:42 39.34974 -112.03032 25914 ft 426 kts 186°
2026-05-04 09:43 39.32023 -112.03252 25803 ft 423 kts 186°
2026-05-04 09:43 39.29097 -112.03473 25800 ft 420 kts 186°
2026-05-04 09:43 39.26191 -112.03687 25794 ft 417 kts 186°
2026-05-04 09:43 39.23299 -112.03900 25790 ft 415 kts 186°
2026-05-04 09:44 39.20425 -112.04111 25795 ft 413 kts 186°
2026-05-04 09:44 39.17566 -112.04297 25812 ft 411 kts 186°
2026-05-04 09:44 39.14717 -112.04460 25821 ft 409 kts 186°
2026-05-04 09:46 38.94987 -112.05654 25884 ft 405 kts 187°
2026-05-04 09:46 38.92179 -112.05876 25871 ft 404 kts 188°
2026-05-04 09:46 38.89374 -112.06092 25874 ft 404 kts 188°
2026-05-04 09:47 38.86568 -112.06320 25874 ft 404 kts 188°
2026-05-04 09:47 38.83800 -112.06536 25868 ft 404 kts 188°
2026-05-04 09:49 38.64084 -112.08458 25823 ft 411 kts 190°
2026-05-04 09:49 38.61231 -112.08783 25823 ft 413 kts 190°
2026-05-04 09:49 38.58431 -112.09251 25810 ft 407 kts 199°
2026-05-04 09:51 38.50081 -112.26128 25829 ft 394 kts 251°
2026-05-04 09:51 38.49261 -112.29413 25837 ft 394 kts 251°
2026-05-04 09:51 38.48429 -112.32748 25834 ft 395 kts 251°
2026-05-04 09:51 38.47688 -112.36124 25822 ft 396 kts 254°
2026-05-04 09:52 38.47007 -112.39528 25819 ft 397 kts 254°
2026-05-04 09:52 38.46328 -112.42945 25824 ft 398 kts 254°
2026-05-04 09:52 38.45645 -112.46378 25822 ft 398 kts 254°
2026-05-04 09:52 38.44973 -112.49807 25826 ft 399 kts 254°
2026-05-04 09:53 38.44339 -112.53255 25812 ft 400 kts 256°
2026-05-04 09:53 38.43763 -112.56692 25819 ft 401 kts 256°
2026-05-04 09:53 38.43196 -112.60174 25824 ft 402 kts 256°
2026-05-04 09:53 38.42629 -112.63669 25838 ft 402 kts 256°
2026-05-04 09:54 38.42076 -112.67167 25855 ft 403 kts 257°
2026-05-04 09:54 38.41595 -112.70681 25873 ft 403 kts 258°
2026-05-04 09:54 38.41135 -112.74214 25881 ft 404 kts 258°
2026-05-04 09:54 38.40674 -112.77737 25911 ft 402 kts 258°
2026-05-04 09:55 38.40223 -112.81252 25916 ft 403 kts 258°
2026-05-04 09:55 38.39774 -112.84776 25930 ft 403 kts 258°
2026-05-04 09:55 38.39272 -112.88238 25950 ft 402 kts 256°
2026-05-04 09:55 38.38647 -112.91712 25972 ft 402 kts 252°
2026-05-04 09:56 38.37796 -112.95105 25971 ft 402 kts 249°
2026-05-04 09:56 38.36776 -112.98424 25974 ft 402 kts 244°
2026-05-04 09:56 38.35543 -113.01617 25974 ft 402 kts 240°
2026-05-04 09:56 38.33878 -113.04452 25992 ft 403 kts 224°
2026-05-04 09:57 38.31626 -113.06596 25957 ft 407 kts 214°
2026-05-04 09:57 38.29127 -113.08301 25932 ft 409 kts 208°
2026-05-04 09:57 38.26569 -113.09805 25915 ft 410 kts 207°
2026-05-04 09:57 38.23976 -113.11317 25898 ft 410 kts 207°
2026-05-04 09:58 38.21431 -113.12942 25865 ft 409 kts 211°
2026-05-04 09:58 38.19014 -113.14834 25858 ft 408 kts 215°
2026-05-04 09:58 38.16672 -113.16854 25841 ft 407 kts 216°
2026-05-04 10:00 38.00149 -113.30707 25807 ft 407 kts 214°
2026-05-04 10:00 37.97771 -113.32650 25807 ft 406 kts 214°
2026-05-04 10:02 37.81198 -113.46184 25808 ft 404 kts 216°
2026-05-04 10:04 37.64723 -113.59616 25814 ft 401 kts 216°
2026-05-04 10:04 37.62380 -113.61517 25815 ft 401 kts 216°
2026-05-04 10:04 37.60067 -113.63392 25814 ft 401 kts 216°
2026-05-04 10:04 37.57719 -113.65288 25816 ft 400 kts 216°
2026-05-04 10:05 37.55375 -113.67173 25809 ft 399 kts 217°
2026-05-04 10:05 37.53036 -113.69058 25807 ft 399 kts 217°
2026-05-04 10:05 37.50702 -113.70942 25807 ft 398 kts 217°
2026-05-04 10:05 37.48370 -113.72825 25811 ft 398 kts 217°
2026-05-04 10:06 37.46070 -113.74682 25807 ft 398 kts 217°
2026-05-04 10:06 37.43746 -113.76556 25800 ft 397 kts 217°
2026-05-04 10:06 37.41419 -113.78430 25801 ft 397 kts 216°
2026-05-04 10:08 37.30447 -113.87274 25775 ft 395 kts 217°
2026-05-04 10:08 37.29105 -113.88354 25766 ft 395 kts 217°
2026-05-04 10:08 37.26794 -113.90213 25787 ft 394 kts 217°
2026-05-04 10:08 37.24491 -113.92068 25762 ft 393 kts 217°
2026-05-04 10:09 37.22179 -113.93911 25771 ft 393 kts 216°
2026-05-04 10:09 37.19847 -113.95705 25770 ft 394 kts 216°
2026-05-04 10:09 37.17489 -113.97451 25774 ft 394 kts 214°
2026-05-04 10:09 37.15087 -113.99125 25782 ft 395 kts 213°
2026-05-04 10:10 37.12641 -114.00691 25760 ft 396 kts 211°
2026-05-04 10:10 37.10168 -114.02216 25761 ft 396 kts 211°
2026-05-04 10:10 37.07731 -114.03720 25741 ft 396 kts 211°
2026-05-04 10:10 37.05243 -114.05198 25754 ft 396 kts 210°
2026-05-04 10:11 37.02754 -114.06661 25737 ft 395 kts 211°
2026-05-04 10:11 37.00278 -114.08146 25748 ft 394 kts 211°
2026-05-04 10:11 36.97834 -114.09680 25731 ft 392 kts 213°
2026-05-04 10:11 36.95456 -114.11325 25738 ft 389 kts 215°
2026-05-04 10:12 36.93142 -114.13065 25727 ft 388 kts 216°
2026-05-04 10:12 36.90869 -114.14860 25715 ft 386 kts 217°
2026-05-04 10:12 36.88607 -114.16678 25729 ft 386 kts 217°
2026-05-04 10:12 36.86384 -114.18466 25713 ft 385 kts 217°
2026-05-04 10:13 36.84132 -114.20266 25720 ft 385 kts 217°
2026-05-04 10:13 36.81872 -114.22059 25708 ft 384 kts 217°
2026-05-04 10:13 36.79613 -114.23842 25714 ft 384 kts 217°
2026-05-04 10:13 36.77357 -114.25616 25715 ft 383 kts 217°
2026-05-04 10:14 36.75097 -114.27388 25704 ft 383 kts 217°
2026-05-04 10:14 36.72849 -114.29155 25694 ft 382 kts 217°
2026-05-04 10:16 36.57203 -114.41440 25691 ft 379 kts 216°
2026-05-04 10:16 36.54971 -114.43186 25686 ft 379 kts 216°
2026-05-04 10:16 36.52738 -114.44931 25688 ft 379 kts 216°
2026-05-04 10:16 36.50507 -114.46675 25675 ft 378 kts 216°
2026-05-04 10:17 36.48287 -114.48410 25683 ft 377 kts 216°
2026-05-04 10:17 36.46094 -114.50126 25685 ft 377 kts 216°
2026-05-04 10:19 36.30585 -114.62211 25696 ft 377 kts 216°
2026-05-04 10:19 36.28364 -114.63937 25699 ft 377 kts 216°
2026-05-04 10:19 36.26142 -114.65662 25716 ft 377 kts 216°
2026-05-04 10:19 36.23916 -114.67382 25697 ft 377 kts 216°
2026-05-04 10:20 36.21702 -114.69109 25714 ft 377 kts 217°
2026-05-04 10:20 36.19481 -114.70838 25726 ft 377 kts 216°
2026-05-04 10:20 36.17256 -114.72553 25746 ft 377 kts 216°
2026-05-04 10:20 36.15034 -114.74274 25759 ft 377 kts 216°
2026-05-04 10:21 36.12841 -114.75978 25778 ft 377 kts 216°
2026-05-04 10:21 36.10634 -114.77725 25794 ft 377 kts 217°
2026-05-04 10:21 36.08445 -114.79506 25807 ft 376 kts 217°
2026-05-04 10:21 36.06256 -114.81287 25824 ft 377 kts 217°
2026-05-04 10:22 36.01876 -114.84834 25831 ft 376 kts 217°
2026-05-04 10:22 35.99695 -114.86609 25838 ft 376 kts 217°
2026-05-04 10:22 35.97509 -114.88386 25830 ft 376 kts 217°
2026-05-04 10:23 35.95346 -114.90142 25828 ft 376 kts 217°
2026-05-04 10:23 35.93155 -114.91908 25830 ft 377 kts 218°
2026-05-04 10:25 35.81687 -115.08779 25835 ft 369 kts 235°
2026-05-04 10:25 35.80177 -115.11333 25840 ft 369 kts 234°
2026-05-04 10:25 35.78632 -115.13858 25855 ft 369 kts 233°
2026-05-04 10:25 35.77058 -115.16363 25853 ft 369 kts 233°
2026-05-04 10:26 35.75476 -115.18854 25850 ft 370 kts 232°
2026-05-04 10:26 35.73846 -115.21305 25850 ft 370 kts 231°
2026-05-04 10:26 35.72167 -115.23704 25852 ft 370 kts 230°
2026-05-04 10:26 35.70451 -115.26072 25852 ft 371 kts 230°
2026-05-04 10:27 35.68746 -115.28386 25869 ft 371 kts 230°
2026-05-04 10:27 35.67009 -115.30732 25870 ft 371 kts 229°
2026-05-04 10:27 35.65272 -115.33077 25855 ft 371 kts 230°
2026-05-04 10:27 35.63537 -115.35424 25868 ft 370 kts 229°
2026-05-04 10:28 35.61808 -115.37768 25865 ft 370 kts 230°
2026-05-04 10:28 35.60079 -115.40114 25877 ft 370 kts 230°
2026-05-04 10:28 35.58349 -115.42461 25878 ft 370 kts 230°
2026-05-04 10:28 35.56621 -115.44805 25879 ft 370 kts 229°
2026-05-04 10:29 35.54896 -115.47145 25881 ft 370 kts 229°
2026-05-04 10:29 35.53195 -115.49450 25884 ft 369 kts 229°
2026-05-04 10:29 35.51470 -115.51788 25885 ft 369 kts 230°
2026-05-04 10:29 35.49752 -115.54115 25887 ft 369 kts 230°
2026-05-04 10:30 35.48029 -115.56451 25888 ft 369 kts 230°
2026-05-04 10:30 35.46306 -115.58786 25884 ft 369 kts 230°
2026-05-04 10:30 35.44581 -115.61118 25888 ft 369 kts 230°
2026-05-04 10:30 35.42858 -115.63447 25888 ft 369 kts 229°
2026-05-04 10:31 35.41131 -115.65780 25889 ft 369 kts 229°
2026-05-04 10:31 35.39406 -115.68110 25888 ft 369 kts 229°
2026-05-04 10:32 35.29069 -115.82006 25889 ft 368 kts 229°
2026-05-04 10:33 35.27289 -115.84260 25883 ft 368 kts 229°
2026-05-04 10:33 35.25627 -115.86581 25880 ft 367 kts 231°
2026-05-04 10:33 35.23997 -115.88973 25895 ft 366 kts 232°
2026-05-04 10:33 35.22380 -115.91379 25899 ft 366 kts 232°
2026-05-04 10:34 35.20772 -115.93780 25895 ft 366 kts 232°
2026-05-04 10:34 35.19130 -115.96171 25893 ft 366 kts 231°
2026-05-04 10:34 35.17449 -115.98507 25893 ft 367 kts 230°
2026-05-04 10:34 35.15718 -116.00802 25888 ft 367 kts 229°
2026-05-04 10:35 35.13960 -116.03061 25884 ft 367 kts 229°
2026-05-04 10:35 35.12190 -116.05302 25883 ft 367 kts 229°
2026-05-04 10:35 35.10417 -116.07535 25884 ft 366 kts 229°
2026-05-04 10:35 35.08646 -116.09767 25883 ft 366 kts 229°
2026-05-04 10:36 35.06900 -116.11973 25879 ft 366 kts 229°
2026-05-04 10:36 35.05133 -116.14210 25873 ft 366 kts 229°
2026-05-04 10:36 35.03368 -116.16445 25866 ft 365 kts 229°
2026-05-04 10:36 35.01610 -116.18672 25867 ft 365 kts 229°
2026-05-04 10:37 34.99845 -116.20907 25870 ft 365 kts 229°
2026-05-04 10:37 34.98084 -116.23137 25876 ft 365 kts 229°
2026-05-04 10:37 34.96315 -116.25375 25611 ft 367 kts 229°
2026-05-04 10:37 34.94577 -116.27568 25375 ft 353 kts 229°
2026-05-04 10:39 34.85189 -116.39412 23804 ft 304 kts 229°
2026-05-04 10:39 34.83728 -116.41255 23557 ft 300 kts 229°
2026-05-04 10:39 34.82283 -116.43077 23138 ft 300 kts 229°
2026-05-04 10:40 34.80835 -116.44904 22689 ft 300 kts 229°
2026-05-04 10:40 34.79382 -116.46741 22307 ft 310 kts 229°
2026-05-04 10:40 34.77868 -116.48663 21934 ft 320 kts 229°
2026-05-04 10:40 34.76306 -116.50631 21571 ft 325 kts 229°
2026-05-04 10:41 34.74732 -116.52606 21205 ft 325 kts 229°
2026-05-04 10:41 34.73154 -116.54583 20841 ft 326 kts 228°
2026-05-04 10:41 34.71578 -116.56559 20480 ft 326 kts 228°
2026-05-04 10:41 34.70000 -116.58537 20112 ft 326 kts 228°
2026-05-04 10:42 34.68422 -116.60517 19757 ft 326 kts 228°
2026-05-04 10:42 34.67380 -116.61825 19523 ft 326 kts 228°
2026-05-04 10:42 34.65270 -116.64473 19049 ft 326 kts 228°
2026-05-04 10:42 34.63716 -116.66424 18698 ft 326 kts 228°
2026-05-04 10:43 34.62136 -116.68408 18353 ft 326 kts 228°
2026-05-04 10:44 34.51309 -116.81985 15688 ft 309 kts 227°
2026-05-04 10:45 34.49757 -116.83789 15311 ft 308 kts 224°
2026-05-04 10:45 34.48149 -116.85488 14948 ft 306 kts 222°
2026-05-04 10:45 34.46538 -116.87171 14617 ft 305 kts 223°
2026-05-04 10:45 34.45492 -116.88301 14385 ft 304 kts 224°
2026-05-04 10:46 34.43949 -116.90038 14028 ft 303 kts 225°
2026-05-04 10:46 34.42437 -116.91808 13678 ft 302 kts 225°
2026-05-04 10:46 34.40945 -116.93591 13286 ft 301 kts 226°
2026-05-04 10:46 34.39465 -116.95381 12906 ft 301 kts 226°
2026-05-04 10:47 34.37989 -116.97173 12528 ft 300 kts 226°
2026-05-04 10:47 34.36517 -116.98964 12150 ft 300 kts 226°
2026-05-04 10:47 34.35052 -117.00750 11789 ft 298 kts 226°
2026-05-04 10:47 34.33610 -117.02502 11382 ft 297 kts 226°
2026-05-04 10:49 34.23762 -117.14451 9138 ft 262 kts 227°
2026-05-04 10:49 34.22498 -117.16006 8792 ft 258 kts 226°
2026-05-04 10:50 34.21249 -117.17537 8456 ft 255 kts 226°
2026-05-04 10:51 34.12687 -117.27852 6264 ft 245 kts 225°
2026-05-04 10:52 34.11489 -117.29318 5874 ft 246 kts 225°
2026-05-04 10:52 34.10311 -117.30773 5497 ft 246 kts 225°
2026-05-04 10:52 34.09116 -117.32255 5137 ft 246 kts 225°
2026-05-04 10:54 34.05465 -117.43777 3348 ft 189 kts 275°
2026-05-04 10:54 34.05535 -117.45281 3107 ft 171 kts 269°
2026-05-04 10:56 34.05486 -117.53951 1693 ft 143 kts 269°
2026-05-04 10:56 34.05498 -117.55120 1465 ft 135 kts 269°
2026-05-04 10:56 34.05491 -117.56239 1301 ft 134 kts 269°
2026-05-04 10:57 34.05495 -117.57355 1122 ft 133 kts 269°
2026-05-04 10:57 34.05494 -117.58480 985 ft 137 kts 269°
2026-05-04 10:57 34.05493 -117.59553 936 ft 112 kts 271°
2026-05-04 10:57 34.05496 -117.60284 941 ft 65 kts 270°
2026-05-04 10:58 34.05495 -117.60667 941 ft 29 kts 270°
2026-05-04 10:58 34.05495 -117.60816 939 ft 17 kts 270°
2026-05-04 10:58 34.05495 -117.60975 940 ft 20 kts 270°
2026-05-04 10:58 34.05480 -117.61120 942 ft 14 kts 244°
2026-05-04 10:59 34.05424 -117.61175 943 ft 9 kts 175°
2026-05-04 10:59 34.05390 -117.61115 943 ft 11 kts 84°
2026-05-04 10:59 34.05390 -117.61009 941 ft 15 kts 92°
2026-05-04 10:59 34.05387 -117.60869 942 ft 18 kts 90°
2026-05-04 11:00 34.05386 -117.60721 942 ft 17 kts 90°
2026-05-04 11:01 34.05268 -117.60101 936 ft 1 kts 78°
2026-05-04 11:02 34.05269 -117.60087 936 ft 3 kts 91°
2026-05-04 11:02 34.05269 -117.60076 936 ft 0 kts 94°